Location: Pulvis Stellarum Observatory
(41.6962°N, 71.4263°W)
Time: 11:17:39
(UTC-04:00)

Daily predictions for brighter satellites

Satellite Brightness Start Highest point End
(mag) Time Altitude Azimuth Time Altitude Azimuth Time Altitude Azimuth
DELTA 2 R/B (1) 4.3 19:57:24 10° W 20:02:44 46° SSW 20:08:04 10° SE
Helios 1A 3.8 20:01:39 10° SE 20:05:29 34° ENE 20:09:21 10° N
Cosmos 1697 Rocket 3.4 20:00:22 10° SW 20:05:58 61° WNW 20:11:34 10° NNE
USA 267 3.8 20:00:32 10° NE 20:07:00 65° NW 20:13:27 10° WSW
Spot 2 Rocket 3.5 20:06:22 10° SSE 20:11:28 85° ENE 20:16:35 10° NNW
Milstar 3 4.0 20:06:16 10° WSW 20:13:39 30° S 20:19:24 10° SE
OAO 3 Rocket 4.1 20:09:56 10° SW 20:14:19 34° S 20:18:46 10° ESE
Cosmos 1869 3.7 20:10:40 10° SSE 20:14:20 40° E 20:18:03 10° NNE
Cosmos 2297 Rocket 4.3 20:09:50 10° NW 20:14:30 27° WSW 20:19:09 10° SSW
Resurs 01 Rocket 1.8 20:11:33 10° S 20:16:00 78° WSW 20:20:28 10° NNW
Cosmos 1892 3.3 20:15:47 10° NNW 20:19:32 61° W 20:23:17 10° S
Cosmos 1400 Rocket 3.7 20:18:00 10° NNW 20:21:47 50° W 20:25:35 10° S
Cosmos 2263 Rocket 3.3 20:17:31 10° N 20:22:19 29° NE 20:26:42 12° ESE
GRACE-1 3.8 20:21:07 10° N 20:23:54 90° S 20:26:37 10° S
GRACE-2 3.8 20:21:31 10° N 20:24:17 89° SE 20:27:01 10° S
CZ-4B DEB 3.5 20:21:57 11° SE 20:24:36 32° ENE 20:27:22 10° N
YAOGAN 6 4.3 20:22:29 12° ESE 20:24:44 19° ENE 20:27:20 10° NNE
Meteor 1-29 3.6 20:24:24 10° NNE 20:27:39 36° E 20:30:51 10° SSE
Cosmos 2322 Rocket 2.5 20:22:27 10° S 20:27:42 43° ESE 20:33:00 10° NE
H-2A R/B 4.1 20:25:44 10° S 20:29:26 41° W 20:33:07 10° NNW
Envisat 3.2 20:26:26 10° SSE 20:31:24 56° ENE 20:36:22 10° N
Cosmos 1302 Rocket 4.2 20:26:58 10° SSW 20:32:10 78° WNW 20:37:23 10° NNE
Cosmos 220 Rocket 4.2 20:28:22 10° NNW 20:32:46 56° ENE 20:36:43 12° SE
Cosmos 1315 Rocket 3.1 20:31:20 10° NNW 20:35:25 70° W 20:39:25 10° S
Cosmos 2360 Rocket 3.4 20:34:23 10° SE 20:38:25 20° E 20:42:29 10° NE
Cosmos 1933 4.3 20:35:43 13° SE 20:38:43 28° E 20:42:12 10° NNE
Cosmos 1980 Rocket 3.0 20:33:23 10° SW 20:38:56 55° WNW 20:44:34 10° NNE
USA 234 3.3 20:35:31 13° SE 20:41:25 80° NE 20:48:00 10° NW
Cosmos 2026 Rocket 4.0 20:36:38 10° N 20:42:53 69° E 20:48:59 10° SSE
Intercosmos 25 Rocket 3.0 20:43:58 10° S 20:47:04 61° E 20:50:52 10° NNE
Cosmos 1825 2.1 20:45:26 10° N 20:49:14 71° E 20:52:20 15° SSE
GENESIS II 4.5 20:49:50 10° SSW 20:53:43 47° ESE 20:57:38 10° NE
SL-16 R/B 2.1 20:49:39 10° SSW 20:55:17 73° ESE 21:00:58 10° NNE
Cosmos 397 4.5 20:57:46 10° NNW 21:02:05 67° ENE 21:04:05 28° SE
Cosmos 1862 3.3 20:58:06 10° N 21:02:08 68° E 21:04:33 23° SSE
ATLAS 5 CENTAUR R/B 3.1 20:56:49 10° NNW 21:02:25 41° NE 21:06:11 21° ESE
Cosmos 1634 Rocket 4.4 20:56:12 10° SSW 21:02:27 67° W 21:08:46 10° N
Helios 1B rocket 3.0 20:59:53 10° N 21:03:57 61° WNW 21:07:58 10° SSW
ERS-1 Rocket 3.1 21:02:09 22° SE 21:05:16 57° ENE 21:10:12 10° N
USA 186 4.1 21:04:11 10° SW 21:06:14 19° W 21:08:23 10° NW
Lacrosse 4 Rocket 1.5 21:01:55 10° NNW 21:06:15 83° WSW 21:08:46 25° SSE
Cosmos 1655 Rocket 4.0 21:03:13 10° N 21:09:40 89° E 21:15:36 12° S
Cosmos 1733 Rocket 3.0 21:06:44 10° N 21:11:12 90° NW 21:14:14 20° S
ERBS 3.3 21:08:06 10° WNW 21:11:23 41° SW 21:12:44 27° S
Cosmos 1939 Rocket 3.2 21:08:25 15° S 21:11:42 65° W 21:15:42 10° NNW
ARGOS 3.9 21:11:28 26° ESE 21:13:38 36° ENE 21:18:31 10° N
Cosmos 1862 Rocket 3.5 21:13:11 10° S 21:17:39 89° WNW 21:22:09 10° N
SeaSat 1 3.1 21:17:14 28° ESE 21:19:10 41° ENE 21:23:47 10° NNW
Meteor 1-26 Rocket 4.5 21:16:14 24° SSE 21:19:23 48° E 21:24:55 10° NNE
USA 229 DEB 4.1 21:16:37 10° S 21:22:46 38° ESE 21:29:02 10° NE
USA 229 4.1 21:16:44 10° S 21:22:52 38° ESE 21:29:07 10° NE
Cosmos 1408 4.0 21:21:12 10° NNW 21:24:37 36° W 21:27:28 13° SSW
Cosmos 1992 Rocket 4.0 21:19:33 10° SSW 21:24:47 82° WNW 21:30:04 10° NNE
Cosmos 1844 Rocket 4.2 21:21:19 10° N 21:25:35 22° NE 21:27:24 19° ENE
Atlas Centaur 2 3.7 21:23:33 10° SW 21:29:54 31° SSE 21:31:33 29° SE
Okean 1-7 4.0 21:31:06 30° ENE 21:31:06 30° ENE 21:34:28 10° NNE
Cosmos 2266 Rocket 4.1 21:24:43 10° N 21:30:54 57° E 21:33:36 33° SE
Terra 3.6 21:31:11 17° ENE 21:31:34 17° ENE 21:34:39 10° NNE
SL-08 RB Rocket 4.3 21:31:41 37° E 21:32:24 39° ENE 21:36:41 10° N
Abrixas rocket 4.1 21:31:09 10° WNW 21:34:05 29° NNW 21:35:56 17° NE
MOS 1-B Rocket 4.1 21:32:23 34° SE 21:34:41 53° ENE 21:40:10 10° N
YAOGAN 11 4.0 21:36:19 50° SE 21:37:23 73° ENE 21:41:44 10° N
Cosmos 1703 Rocket 3.6 21:37:03 52° SE 21:37:37 56° E 21:41:58 10° NNE
CZ-4C R/B 4.5 21:37:01 10° NNW 21:42:11 22° NNE 21:46:59 12° ENE
Cosmos 2221 Rocket 3.9 21:44:07 48° E 21:44:07 48° E 21:48:09 10° NNE
Cosmos 2219 Rocket 4.2 21:46:58 13° ENE 21:46:58 13° ENE 21:47:57 10° ENE
MetOp-A 4.1 21:47:17 38° S 21:49:25 81° WSW 21:54:48 10° NNW
Cosmos 1867 3.6 21:45:22 10° NNW 21:50:50 72° NE 21:52:05 52° ESE
Cosmos 489 Rocket 4.5 21:46:31 10° NNW 21:52:54 84° WSW 21:55:23 40° SSE
H-2A R/B 2.2 21:52:50 47° E 21:53:20 49° ENE 21:58:07 10° N
Meteor 1-14 Rocket 4.1 21:48:25 10° N 21:54:06 81° E 21:55:46 48° SSE
OAO 3 Rocket 4.1 21:52:52 10° WSW 21:56:38 34° SSW 21:56:38 34° SSW
YAOGAN 6 4.4 21:56:56 23° SW 21:58:06 27° W 22:01:16 10° NW
Cosmos 2237 4.2 22:00:10 55° SE 22:00:49 59° ESE 22:06:28 10° NNE
ASTEX 1 4.4 22:03:59 32° ENE 22:03:59 32° ENE 22:07:56 10° NNE
SPOT 5 2.9 22:04:10 57° SSW 22:05:04 73° WSW 22:09:48 10° NNW
Cosmos 968 Rocket 3.5 22:00:39 10° NNW 22:05:50 72° WSW 22:06:50 56° SSW
Cosmos 2263 Rocket 3.0 22:01:09 10° NW 22:06:22 42° WSW 22:08:25 30° SSW
COSMOS 2428 2.9 22:10:12 51° E 22:10:12 51° E 22:15:09 10° NNE
Meteor 1-25 Rocket 4.0 22:04:22 10° N 22:10:00 80° E 22:10:47 66° SSE
Meteor 2-10 Rocket 4.4 22:05:37 14° SSW 22:10:27 54° WNW 22:16:09 10° N
Cosmos 2322 Rocket 4.1 22:07:05 10° WSW 22:11:53 28° NW 22:16:44 10° N
Cosmos 2360 Rocket 2.8 22:16:23 10° SW 22:21:55 56° WNW 22:27:32 10° NNE
H-2A R/B 2.8 22:23:59 46° NNE 22:23:59 46° NNE 22:27:15 10° N
USA 234 4.5 22:22:52 25° SSW 22:24:48 29° SW 22:30:20 10° WNW
Cosmos 1844 4.1 22:22:45 10° NNW 22:28:16 49° ENE 22:28:20 49° ENE
Meteor 1-20 Rocket 4.1 22:24:06 10° NNW 22:29:40 79° W 22:30:09 72° SSW
Cosmos 2322 4.2 22:25:27 17° SW 22:29:47 57° WNW 22:35:26 10° NNE
S3M 4.4 22:32:12 45° ENE 22:32:12 45° ENE 22:37:28 10° NNE
Meteor 2-6 Rocket 4.2 22:39:59 79° E 22:39:59 79° E 22:45:54 10° NNE
SPOT 1/Viking Rocket 4.1 22:40:22 49° WSW 22:40:43 50° W 22:45:48 10° NNW
Okean 2 Rocket 4.1 22:41:12 10° NNW 22:44:59 44° WNW 22:44:59 44° WNW
ATLAS 5 CENTAUR R/B 3.1 22:41:31 10° NW 22:47:13 42° WSW 22:47:45 41° SW
Cosmos 2333 Rocket 3.3 22:52:12 34° NE 22:52:12 34° NE 22:55:38 10° NNE
Cosmos 2333 4.2 22:51:47 79° NW 22:51:47 79° NW 22:57:25 10° NNE
SeaSat 1 3.9 22:57:02 27° WSW 22:57:02 27° WSW 23:00:58 10° NW
Cosmos 2237 Rocket 3.7 22:59:46 26° NE 22:59:46 26° NE 23:02:25 10° NE
Cosmos 2278 Rocket 2.8 22:55:16 10° NNW 23:00:07 47° NE 23:00:07 47° NE
Cosmos 1417 Rocket 4.5 23:03:56 74° WSW 23:04:08 75° W 23:10:31 10° N
Cosmos 1745 Rocket 4.0 22:59:33 10° N 23:05:30 74° NE 23:05:30 74° NE
Terra 2.9 23:10:04 42° NW 23:10:04 42° NW 23:13:32 10° NNW
Cosmos 1844 Rocket 3.2 23:04:24 10° NNW 23:09:04 54° WNW 23:09:04 54° WNW
NOSS 3-1 (C) 3.8 23:11:31 54° NE 23:11:31 54° NE 23:16:29 10° NE
Meteor 1-27 Rocket 4.1 23:12:59 62° N 23:12:59 62° N 23:17:38 10° N
Atlas Centaur 2 4.5 23:11:40 10° WSW 23:14:12 21° SW 23:14:12 21° SW
NOSS 3-1 (A) 4.1 23:26:28 44° NE 23:26:28 44° NE 23:30:53 10° NE
Cosmos 2219 Rocket 2.8 23:28:37 53° NNW 23:28:37 53° NNW 23:33:14 10° NNE
CZ-4C R/B 2.9 23:24:48 10° NNW 23:31:56 71° NE 23:32:09 71° ENE
H-2A R/B 4.0 23:33:27 19° W 23:33:27 19° W 23:36:31 10° NW
Meteor 1-11 Rocket 4.5 23:28:52 10° NNW 23:33:08 47° NW 23:33:08 47° NW
